EHI
0 0 0 0 0 0 0 0 0 0 0 0 0 1 2 4 5 9 17 24 27 31 38 41 39 36 37 38 37 37 37 37 36 35 27 21 18 15 12 9 5 2 1 0
0 0 0 0 0 0 0 0 0 0 0 0 0 0 2 3 5 8 15 22 24 27 34 39 39 38 39 38 35 33 34 32 32 32 29 25 22 16 11 10 7 3 1 0
0 0 0 0 0 0 0 0 0 0 0 0 0 1 2 2 3 7 12 19 23 23 27 31 33 35 37 36 30 27 28 26 25 27 26 24 22 15 9 9 8 4 1 0
0 0 0 0 0 0 0 0 0 0 0 0 0 1 1 1 2 5 11 18 23 22 19 20 23 27 32 30 25 23 24 22 20 22 21 17 15 10 7 8 9 6 2 0
0 0 0 0 0 0 0 0 0 0 0 0 0 0 0 0 1 4 10 17 22 21 17 15 18 22 26 26 24 24 25 21 19 18 15 11 10 8 7 9 11 8 4 1
0 0 0 0 0 0 0 0 0 0 0 0 0 0 0 0 0 2 8 15 20 20 19 19 22 24 24 23 24 26 24 20 17 14 10 7 8 9 9 9 10 9 5 2
0 0 0 0 0 0 0 0 0 0 0 0 0 0 0 0 0 1 5 11 17 18 20 23 27 28 25 22 23 24 22 17 11 7 5 5 8 10 10 8 8 7 5 2
0 0 0 0 0 0 0 0 0 0 0 0 0 0 0 0 0 0 2 8 15 17 18 21 25 26 23 19 19 21 18 13 9 7 7 7 9 11 10 7 5 5 3 1
0 0 0 0 0 0 0 0 0 0 0 0 0 0 0 0 0 0 2 8 15 16 16 18 21 21 17 14 16 17 14 12 11 11 10 8 8 8 8 6 3 2 2 1
0 0 0 0 0 0 0 0 0 0 0 0 0 0 0 0 0 0 2 7 13 16 17 20 22 19 15 13 14 13 12 11 11 10 8 6 6 5 6 4 2 0 0 0
0 0 0 0 0 0 0 0 0 0 0 0 0 0 0 0 0 0 1 4 9 13 16 21 24 22 18 15 13 11 10 9 9 7 5 4 4 4 4 3 1 0 0 0
0 0 0 0 0 0 0 0 0 0 0 0 0 0 0 0 0 0 0 1 3 7 11 18 23 23 19 15 12 9 8 7 7 7 5 4 4 4 4 3 1 0 0 0
0 0 0 0 0 0 0 0 0 0 0 0 0 0 0 0 0 0 0 0 1 3 8 15 21 21 19 16 13 9 8 7 7 6 5 5 5 5 6 4 2 1 1 1
0 0 0 0 0 0 0 0 0 0 0 0 0 0 0 0 0 0 0 0 2 6 11 15 18 18 17 17 15 12 10 8 8 6 5 5 6 6 6 6 4 3 3 3
0 0 0 0 0 0 0 0 0 0 0 0 0 0 0 0 1 1 1 1 4 11 16 18 17 15 15 17 18 16 14 12 10 8 7 7 8 8 8 8 6 4 4 4
0 0 0 0 0 0 0 0 0 0 0 0 0 0 0 0 1 3 3 4 6 13 19 20 18 17 15 18 20 21 20 17 14 11 10 10 10 10 10 9 7 5 4 5
1 1 0 0 0 0 0 1 1 1 0 0 0 0 1 2 3 4 5 5 6 11 16 20 20 19 18 19 22 23 23 21 18 15 14 12 11 10 8 7 7 6 5 7
0 0 0 0 0 0 0 1 2 2 1 0 1 1 2 3 3 4 4 4 4 6 10 14 16 17 18 20 22 23 22 22 21 19 17 14 11 9 8 8 10 10 10 11
0 0 0 0 0 0 0 1 1 2 2 1 2 2 2 2 2 2 1 1 2 4 6 7 11 14 17 21 24 25 23 22 22 21 20 16 12 12 13 14 15 16 15 14
0 0 0 0 0 0 0 0 0 1 1 1 1 1 1 1 1 1 1 2 4 6 7 6 9 13 18 24 31 32 29 27 25 23 23 22 19 17 18 20 21 21 19 17
0 0 0 0 0 0 0 0 0 0 1 1 0 1 2 2 2 2 3 4 7 10 11 11 12 14 20 29 36 35 32 30 26 24 26 28 26 23 23 25 26 25 23 22
0 0 0 0 0 0 0 0 0 1 1 1 0 0 2 3 3 2 3 5 8 13 15 15 17 19 23 30 33 32 30 29 28 27 30 33 33 29 28 31 31 30 27 24
0 0 0 0 0 0 0 0 1 1 2 1 0 0 2 2 1 1 1 3 8 14 17 17 19 24 26 27 28 28 29 31 32 35 37 39 40 36 35 35 33 30 25 20
0 0 0 0 0 0 0 0 1 1 1 1 0 0 1 1 0 0 0 2 6 10 15 16 16 21 25 25 24 27 31 37 40 41 42 44 42 38 34 31 27 24 20 16
0 0 0 0 0 0 0 0 1 1 1 0 0 0 0 0 0 0 0 1 2 6 10 12 13 16 19 21 24 28 35 42 43 41 40 38 34 29 24 18 13 12 13 13
0 0 0 0 0 0 0 0 1 1 0 0 0 0 0 0 0 0 0 1 1 4 8 11 13 15 15 17 23 31 39 43 43 40 36 31 25 22 16 9 4 5 7 7
Wind_Speed
12 13 14 12 11 7 6 8 8 5 2 7 9 9 6 5 8 8 9 10 11 11 12 12 12 13 14 14 14 14 14 13 11 9 9 8 7 6 6 6 7 7 6 7
11 16 13 8 7 9 9 10 8 5 2 7 8 9 6 5 7 7 8 10 10 11 11 12 13 14 14 14 15 15 14 14 13 10 8 7 7 6 6 6 7 7 7 7
16 8 10 10 11 11 11 10 8 6 5 7 8 10 6 6 6 7 8 9 10 11 13 13 14 15 15 15 15 13 14 14 13 12 8 7 6 5 6 7 7 7 7 7
14 8 8 12 12 11 10 7 8 7 8 5 5 8 4 5 7 9 9 10 11 12 12 13 14 15 15 14 14 13 13 13 13 12 11 11 10 9 8 7 7 7 8 8
11 11 11 13 12 11 8 4 7 8 9 9 7 9 2 4 6 6 8 10 11 12 12 13 13 14 14 13 13 13 13 12 13 12 12 12 10 8 7 8 8 7 7 7
10 8 10 10 9 9 6 6 7 8 9 10 5 7 5 2 3 3 5 8 10 11 12 12 12 13 12 13 12 13 13 13 13 13 13 13 12 11 10 10 9 8 7 7
12 12 11 9 10 10 10 9 8 9 8 6 2 7 4 2 1 2 3 6 9 11 12 13 13 14 13 14 14 13 13 13 13 13 13 13 12 12 12 11 10 9 7 7
12 12 12 10 11 9 12 12 9 7 6 4 5 6 2 2 1 1 3 5 8 11 12 13 14 14 14 14 14 14 14 13 13 13 12 12 12 10 9 10 9 8 7 7
9 7 8 8 9 9 10 11 9 9 10 8 5 4 4 2 2 2 4 6 8 10 12 13 14 14 14 14 15 15 15 14 14 14 13 12 12 10 9 10 9 8 7 7
6 6 8 7 8 9 9 8 7 9 9 10 7 6 3 1 1 1 3 5 7 10 12 13 13 13 13 13 14 14 15 14 14 13 12 11 11 11 10 9 9 9 9 8
8 8 8 9 9 9 9 10 9 8 8 10 8 2 4 2 3 2 1 3 7 10 12 13 13 13 13 13 14 14 14 14 13 13 13 12 12 11 11 10 10 10 9 10
7 7 7 7 2 3 7 8 9 9 8 9 10 3 5 3 2 2 1 2 5 8 11 13 14 14 13 14 14 14 14 14 14 13 13 13 12 12 11 11 11 11 11 11
6 6 8 9 8 8 8 8 9 9 8 9 11 4 6 2 2 2 2 1 4 7 10 11 13 14 14 14 14 14 14 14 14 13 13 13 13 13 12 12 12 12 11 11
5 7 9 9 5 6 8 8 9 10 10 10 11 9 3 2 3 3 2 0 4 7 9 11 12 13 13 14 14 14 14 14 14 13 14 14 14 13 13 12 12 12 12 12
5 8 9 8 6 7 9 10 11 12 13 13 10 9 6 4 4 4 3 1 3 6 8 10 11 12 13 14 14 14 14 14 14 14 14 14 13 13 13 13 13 12 12 13
3 6 7 8 8 9 10 11 11 11 12 12 12 9 4 3 3 3 3 2 2 4 6 9 10 12 13 15 15 15 15 15 15 15 15 14 14 14 13 13 13 13 12 12
5 5 7 8 6 8 11 9 9 9 9 11 11 5 3 3 4 4 3 3 3 2 4 6 8 10 12 14 15 16 16 15 15 15 15 15 15 15 14 14 14 13 13 13
4 6 6 6 6 11 1 2 3 5 6 6 5 3 3 3 4 3 3 4 4 4 4 5 6 8 10 12 14 15 15 16 16 16 15 15 15 15 14 14 14 13 12 12
4 5 6 6 9 7 3 1 2 5 5 3 3 2 3 3 4 2 3 4 5 6 6 5 6 8 9 11 13 15 15 16 16 16 16 16 16 15 15 15 14 13 12 12
5 6 7 7 9 7 2 3 2 5 5 2 3 3 3 4 5 1 6 7 7 7 6 5 5 7 8 9 12 14 15 15 16 16 15 15 15 15 15 15 14 12 11 11
7 7 9 9 9 3 4 2 3 6 2 4 5 5 5 4 4 5 7 7 7 7 6 4 4 5 6 8 10 13 14 14 14 13 13 13 14 14 14 13 12 11 11 11
5 5 6 6 8 3 3 1 2 4 5 5 5 5 4 3 3 4 5 7 7 7 6 4 2 2 3 6 9 11 12 11 11 11 12 13 13 12 11 12 11 11 11 11
3 2 2 2 1 5 4 4 4 4 4 4 5 5 4 3 3 4 5 6 7 8 7 5 2 1 1 3 6 8 9 9 10 11 11 11 11 10 10 10 11 10 10 9
2 0 2 2 2 2 3 4 4 4 4 4 4 3 3 3 4 4 5 6 7 7 7 6 5 5 4 2 3 3 5 7 9 9 9 8 9 9 8 7 7 7 8 8
1 1 2 2 1 1 2 4 5 4 5 5 5 5 4 4 5 5 5 6 6 6 6 6 6 6 6 5 4 3 3 6 7 7 7 7 7 7 6 5 3 4 3 2
2 2 3 1 2 1 3 4 4 5 6 6 6 8 8 7 7 7 7 7 7 7 7 8 8 8 8 7 7 6 4 5 6 6 5 5 5 5 5 6 5 8 6 7
Wind_Direction
192 212 215 213 225 263 271 262 258 261 265 260 261 269 264 213 217 217 204 195 194 192 183 179 181 181 178 178 179 179 181 181 178 174 178 180 181 183 179 177 177 183 187 186
193 220 223 227 226 239 245 253 254 248 231 266 274 273 262 222 222 222 209 199 194 184 177 178 181 180 180 181 182 181 182 183 183 181 180 179 173 179 177 175 174 184 187 188
210 210 205 212 216 228 238 248 260 277 278 243 266 253 218 197 209 214 213 204 195 190 184 180 181 180 180 183 184 182 180 182 185 180 174 170 166 176 178 180 179 182 182 187
223 211 205 215 221 228 237 242 264 268 267 257 263 278 217 194 205 210 211 206 198 191 186 183 183 181 183 184 182 180 179 182 182 180 180 180 184 186 182 178 173 175 183 183
207 209 211 222 223 225 248 255 255 262 263 267 239 268 242 187 224 209 203 203 198 190 188 185 184 183 182 180 181 180 178 180 181 184 185 187 189 185 171 170 164 176 177 183
219 201 224 228 223 222 225 228 237 243 249 250 253 269 271 222 250 226 193 193 193 188 186 184 181 178 177 176 177 176 177 180 183 185 188 190 184 178 172 173 170 178 174 180
215 214 213 223 218 203 215 230 230 224 226 243 180 258 278 340 331 280 216 188 184 183 183 181 180 177 175 176 177 175 176 180 182 184 186 187 184 180 178 178 178 179 175 178
203 201 196 206 221 212 216 233 248 261 257 246 200 248 286 37 4 259 197 184 180 182 183 183 181 178 177 176 175 175 177 179 181 183 183 185 184 184 182 185 179 181 182 177
208 193 170 198 217 229 214 231 259 269 270 271 247 241 248 213 200 182 171 176 182 183 182 183 182 180 180 177 177 177 178 180 183 183 180 182 185 188 181 174 180 180 179 172
227 214 177 178 201 215 245 238 231 249 264 265 253 245 254 176 5 161 177 181 179 181 179 180 181 179 179 177 177 180 179 182 182 180 181 181 185 185 177 178 183 179 178 173
223 226 188 191 211 206 202 219 239 252 264 272 273 263 63 11 355 354 167 179 178 182 180 177 178 177 177 177 177 178 178 179 180 181 181 179 181 181 180 183 182 178 177 175
212 234 223 202 171 278 234 235 233 245 249 257 274 276 82 49 28 14 37 139 173 182 181 177 175 174 177 179 179 180 181 180 180 178 178 180 180 180 183 185 182 180 178 181
184 223 220 197 186 197 221 226 239 249 259 255 259 248 119 97 27 18 12 117 162 178 179 176 174 177 179 181 181 183 185 184 182 179 180 179 180 182 186 185 182 181 181 185
221 228 247 250 241 206 219 226 230 240 250 254 255 268 255 313 331 343 1 184 172 175 179 181 179 182 183 184 184 184 185 184 181 181 183 182 183 183 183 183 182 183 186 188
229 234 243 261 259 246 243 240 237 242 256 267 273 273 297 330 331 337 335 285 187 181 185 188 187 186 187 187 187 186 186 184 183 185 187 186 185 183 184 183 185 186 191 193
233 247 240 243 242 245 249 247 247 251 258 262 267 269 322 340 341 338 336 317 230 202 197 195 194 192 194 191 189 187 187 185 186 190 191 187 185 186 188 187 187 188 192 196
205 227 238 240 232 247 241 239 245 247 256 267 270 283 311 312 332 339 336 321 309 262 220 208 204 199 198 196 192 190 188 185 188 193 194 190 188 188 189 190 189 191 193 195
219 233 242 247 232 238 201 57 289 276 277 285 288 296 305 319 317 313 322 328 324 318 278 234 220 209 201 198 193 192 189 188 190 193 195 193 191 190 189 192 193 194 195 196
218 228 243 242 238 240 179 143 288 275 273 323 315 317 326 321 274 229 42 2 337 322 300 272 240 220 206 198 194 190 190 190 192 195 195 193 193 192 191 194 194 194 196 198
186 220 238 239 247 243 111 71 339 274 241 60 347 332 321 292 270 39 18 349 336 325 310 285 252 224 205 196 191 191 192 192 195 196 196 192 192 193 193 194 194 194 197 200
191 206 227 236 243 245 58 17 270 250 39 16 340 332 319 325 328 340 338 338 336 330 322 303 260 225 205 189 186 193 195 196 196 194 192 191 191 193 192 191 191 191 194 198
231 222 224 233 237 214 56 332 323 360 358 337 331 331 325 324 322 338 346 347 348 347 346 339 299 230 198 183 184 191 196 195 191 190 190 189 189 192 190 189 190 191 192 194
249 297 279 276 18 58 40 26 10 342 327 328 325 326 327 334 350 2 5 4 2 360 3 4 16 62 115 171 181 191 192 185 182 185 187 186 186 190 186 186 188 190 194 202
158 244 229 211 145 83 38 26 7 355 346 344 344 348 3 13 16 23 23 17 16 13 13 19 37 50 51 73 146 177 175 172 173 175 176 176 176 176 177 179 185 191 193 199
34 208 224 216 141 132 62 24 13 15 24 26 31 41 50 52 48 49 43 34 31 27 27 39 49 52 49 49 64 89 123 145 154 157 158 160 163 164 161 156 148 184 181 198
321 307 289 326 39 3 64 41 31 42 42 41 49 57 59 62 63 61 57 50 46 42 41 50 54 55 53 55 56 55 82 120 132 136 140 147 151 149 152 148 127 67 65 69